Погода в Юрике

США     40°46′51″N   124°09′21″W
темп.,
°C
ветер,
м/с
пор.,
м/с
влажн.,
%
обл.,
%
осадки,
мм/ч
давл.,
гПа
погр.,
м
16 октября, сб
сб1623:00+10св239073 0.0 102149
02:00+10всв228479 0.0 102038
05:00+10всв227373 0.0 101932
08:00+10всв127137 0.0 101832
11:00+14ссз326085 0.0 1017108
14:00+14ссз336938 0.0 1015147
17:00+13ссв227577 0.0 101497
20:00+11ююз018096 0.0 101312
17 октября, вс
вс1723:00+10юв2282100 0.0 101321
02:00+10ю2264100 0.0 101134
05:00+10ююв3465100 0.0 101069
08:00+9ююв3462100 0.0 101079
11:00+15ю476499 0.1 1009490
14:00+10сз5797100 7.9 1008490
17:00+10с2492100 25.1 1010300
20:00+10сз468798 0.7 1011491
18 октября, пн
пн1823:00+10ссз348783 1.6 1014248
02:00+9вюв118730 0.3 101570
05:00+8юв22905 0.4 101668
08:00+8юв23881 0.0 101772
11:00+11всв11738 0.0 1018295
14:00+12сз32660 0.0 1018404
17:00+11с2270100 0.0 1016222
20:00+9в2281100 0.0 101743
19 октября, вт
вт1923:00+8юв2376100 0.0 101668
02:00+8юв3477100 0.0 101595
05:00+8юв3475100 0.0 1013102
08:00+8ююв3573100 0.0 1013122
11:00+14ю595445 0.0 1012532
14:00+16ююз101447100 0.0 1010753
17:00+15ююв101842100 0.0 1009619
20:00+11ююв91771100 1.0 1009473
20 октября, ср
ср2023:00+11ююв61483100 3.9 1009619
02:00+12юв71582100 2.7 1011464
05:00+11юв51184100 2.9 1012314
08:00+12юв5886100 0.3 1014191
11:00+15юв487477 0.4 1015328
14:00+17ю587088 0.1 1015529
17:00+16ююз5976100 0.2 1015436
20:00+13ю3489100 0.0 101541